Flag for Germany Weather past 2 weeks in Nordkirchen, North Rhine-Westphalia, Germany

50 °F


Feels Like: 48 °F
Forecast: 36 / 50 °F
Wind: 5 mph from East

Location: Muenster / Osnabrueck

Current Time: Oct 10, 2015 at 5:39:51 AM

Latest Report: Oct 10, 2015 at 4:50 AM

Visibility: 3 mi

Pressure: 30.18 "Hg

Humidity: 94%

Dew point: 48 °F

Location of NordkirchenLocation

Historic Weather in Nordkirchen — Graph


Nordkirchen temperature yesterday

Maximum temperature yesterday: 59 °F (at 3:20 PM)
Minimum temperature yesterday: 54 °F (at 12:20 AM)
Average temperature yesterday: 55 °F

Past Weeks' High & Low Weather Summary

High66 °F (Oct 3, 4:50 PM)100% (Sep 25, 4:20 AM)30.66 "Hg (Sep 25, 4:20 AM)
Low34 °F (Oct 2, 7:20 AM)39% (Oct 2, 2:20 PM)29.59 "Hg (Oct 6, 7:20 AM)
Average54 °F84%30.21 "Hg
* Reported Sep 25 4:20 AM — Oct 10 4:20 AM, Nordkirchen, Weather by CustomWeather, © 2015

Note: Actual official high and low records may vary slightly from our data, if they occured in-between our weather recording intervals... More about our weather records


Nordkirchen weather history for previous 24 hours

Time TempWeatherWind HumidityBarometerVisibility
4:20 AM
Sat, Oct 10
52 °FFog.8 mph88%30.18 "Hg3 mi
3:50 AM52 °FFog.2 mph94%30.18 "Hg3 mi
3:20 AM52 °FFog.3 mph94%30.18 "Hg3 mi
2:50 AM52 °FFog.5 mph94%30.18 "Hg3 mi
2:20 AM52 °FPassing clouds.6 mph94%30.18 "Hg4 mi
1:50 AM52 °FPassing clouds.7 mph94%30.18 "HgN/A
1:20 AM54 °FPassing clouds.8 mph88%30.18 "HgN/A
12:50 AM54 °FPassing clouds.6 mph94%30.18 "HgN/A
12:20 AM54 °FPartly cloudy.7 mph94%30.18 "HgN/A
11:20 PM
Fri, Oct 9
55 °FPartly cloudy.3 mph88%30.18 "HgN/A
10:50 PM55 °FPassing clouds.5 mph94%30.18 "HgN/A
10:20 PM55 °FPassing clouds.3 mph94%30.18 "HgN/A
9:50 PM55 °FPassing clouds.3 mph94%30.18 "HgN/A
9:20 PM55 °FLight rain. Passing clouds.2 mph94%30.18 "HgN/A
8:50 PM55 °FPartly cloudy.2 mph100%30.18 "HgN/A
8:20 PM55 °FSprinkles. Partly cloudy.2 mph94%30.18 "HgN/A
7:50 PM57 °FSprinkles. Passing clouds.7 mph88%30.18 "HgN/A
7:20 PM55 °FPartly sunny.5 mph94%30.15 "HgN/A
6:50 PM57 °FBroken clouds.6 mph88%30.15 "HgN/A
6:20 PM57 °FPartly sunny.6 mph88%30.15 "HgN/A
5:50 PM57 °FBroken clouds.7 mph88%30.15 "HgN/A
5:20 PM59 °FBroken clouds.8 mph82%30.15 "HgN/A
4:20 PM59 °FBroken clouds.7 mph88%30.15 "HgN/A
3:50 PM59 °FBroken clouds.8 mph82%30.15 "HgN/A
3:20 PM59 °FBroken clouds.6 mph88%30.15 "HgN/A
2:50 PM57 °FBroken clouds.8 mph88%30.15 "HgN/A
2:20 PM57 °FLight rain. Broken clouds.8 mph88%30.18 "HgN/A
1:50 PM57 °FBroken clouds.8 mph88%30.18 "HgN/A
1:20 PM57 °FBroken clouds.8 mph88%30.18 "Hg6 mi
12:50 PM57 °FPartly sunny.7 mph88%30.18 "Hg6 mi
12:20 PM57 °FPartly sunny.8 mph94%30.18 "Hg6 mi
11:50 AM57 °FPartly sunny.7 mph88%30.18 "Hg6 mi
11:20 AM57 °FPartly sunny.6 mph88%30.18 "Hg5 mi
10:50 AM55 °FLight rain. Fog.6 mph94%30.18 "Hg3 mi
10:20 AM55 °FLight rain. Fog.3 mph94%30.18 "Hg2 mi
9:50 AM54 °FLight rain. Fog.3 mph100%30.18 "Hg2 mi
9:20 AM54 °FLight rain. Fog.3 mph100%30.18 "Hg2 mi
8:50 AM54 °FLight rain. Fog.5 mph100%30.15 "Hg1 mi
8:20 AM54 °FLight rain. Fog.5 mph94%30.15 "Hg1 mi
7:50 AM54 °FLight rain. Fog.6 mph94%30.15 "Hg1 mi
7:20 AM54 °FLight rain. Fog.5 mph94%30.15 "Hg1 mi
6:50 AM54 °FLight rain. Fog.3 mph100%30.15 "Hg2 mi
6:20 AM54 °FLight rain. Fog.3 mph100%30.15 "Hg2 mi
5:20 AM54 °FLight rain. Fog.2 mph100%30.15 "Hg1 mi
Weather by CustomWeather, © 2015

See weather overviewHow to use our weather pages